Regional Weather Roundup
Issued by NWS

Home | Current Version | Previous Version | Graphics & Text | Print | Product List | Glossary Off
Versions: 1 2 3 4 5 6 7 8 9 10 11 12 13 14 15 16 17 18 19 20 21 22 23 24 25 26 27 28 29 30 31 32 33 34 35 36 37 38 39 40 41 42 43 44 45 46 47 48 49 50

549
ASUS43 KTOP 231759
RWRKS

WEATHER ROUNDUP FOR KANSAS
NATIONAL WEATHER SERVICE GOODLAND KS
100 PM CDT TUE MAY 23 2017

NOTE:  "FAIR" INDICATES FEW OR NO CLOUDS BELOW 12,000 FEET WITH NO
SIGNIFICANT WEATHER AND/OR OBSTRUCTIONS TO VISIBILITY.

KSZ001>006-013>018-027>032-041>047-231900-
NORTHWEST KANSAS

CITY           SKY/WX    TMP DP  RH WIND       PRES   REMARKS
GOODLAND       CLOUDY    56  39  53 N23G30    30.08S
6HR MIN TEMP:  40; 6HR MAX TEMP:  60;

HAYS           PTSUNNY   61  43  51 NW17G23   29.98F
HILL CITY      CLOUDY    65  38  36 N23G32    30.00
6HR MIN TEMP:  45; 6HR MAX TEMP:  67;

RUSSELL        PTSUNNY   62  44  51 NW23      29.95F
6HR MIN TEMP:  47; 6HR MAX TEMP:  65;

$$

KSZ061>065-074>080-084>089-231900-
SOUTHWEST KANSAS

CITY           SKY/WX    TMP DP  RH WIND       PRES   REMARKS
DODGE CITY     CLOUDY    61  41  47 N17G23    30.03F
6HR MIN TEMP:  46; 6HR MAX TEMP:  64;

ELKHART          N/A     60  32  34 N16         N/A
GARDEN CITY    CLOUDY    62  37  39 N18G28    30.05F
6HR MIN TEMP:  44; 6HR MAX TEMP:  65;

GREAT BEND     PTSUNNY   62  43  49 NW17G26   29.97F
LIBERAL        PTSUNNY   62  40  44 N13G24    30.08F
$$

KSZ066>073-081>083-090>101-231900-
SOUTHEAST KANSAS

CITY           SKY/WX    TMP DP  RH WIND       PRES   REMARKS
CHANUTE        PTSUNNY   67  47  48 N10       29.89F
6HR MIN TEMP:  57; 6HR MAX TEMP:  67; 6HR PCP: TRACE;

COFFEYVILLE    CLOUDY    64  53  67 N13       29.90F
6HR MIN TEMP:  58; 6HR MAX TEMP:  64; 6HR PCP: TRACE;

HUTCHINSON     MOSUNNY   69  45  41 N13G21    29.94F
6HR MIN TEMP:  51; 6HR MAX TEMP:  69; 6HR PCP: TRACE;

MEDICINE LODGE   N/A     67  41  38 NW18G25   29.97F
NEWTON         PTSUNNY   64  45  49 N13       29.94F
PARSONS        CLOUDY    65  48  54 N12       29.90F
6HR MIN TEMP:  58; 6HR MAX TEMP:  66; 6HR PCP: TRACE;

WICHITA INTL   MOSUNNY   68  44  42 N20G30    29.93F
6HR MIN TEMP:  54; 6HR MAX TEMP:  68; 6HR PCP: TRACE;

WICHITA JABRA  MOSUNNY   69  46  43 N15       29.93F
6HR MIN TEMP:  53; 6HR MAX TEMP:  69;

WINFIELD       MOSUNNY   68  50  52 N15       29.94F
6HR MIN TEMP:  54; 6HR MAX TEMP:  68; 6HR PCP:  0.01;

$$

KSZ007>012-019>026-033>040-048>060-102>105-231900-
NORTHEAST KANSAS

CITY           SKY/WX    TMP DP  RH WIND       PRES   REMARKS
CONCORDIA      CLOUDY    62  49  62 NW16G23   29.92F
6HR MIN TEMP:  49; 6HR MAX TEMP:  64;

EMPORIA        MOSUNNY   66  45  46 N12G24    29.90F
6HR MIN TEMP:  54; 6HR MAX TEMP:  66;

LAWRENCE       MOSUNNY   65  48  54 NW10      29.87F
6HR MIN TEMP:  54; 6HR MAX TEMP:  67; 6HR PCP:  0.01;

MANHATTAN      PTSUNNY   67  46  47 NW8       29.89F
6HR MIN TEMP:  53; 6HR MAX TEMP:  68;

OLATHE IND     PTSUNNY   62  46  55 N12       29.87F
6HR MIN TEMP:  53; 6HR MAX TEMP:  65; 6HR PCP:  0.01;

OLATHE EXE     CLOUDY    61  46  57 NW9       29.86F
6HR MIN TEMP:  53; 6HR MAX TEMP:  64; 6HR PCP: TRACE;

SALINA         PTSUNNY   68  44  42 NW20      29.92F
6HR MIN TEMP:  52; 6HR MAX TEMP:  69;

TOPEKA BILLARD SUNNY     66  48  52 N13G21    29.87F
6HR MIN TEMP:  53; 6HR MAX TEMP:  67; 6HR PCP: TRACE;

TOPEKA FORBES    N/A     68  48  48 NW17G28   29.88F
6HR MIN TEMP:  54; 6HR MAX TEMP:  68; 6HR PCP:  0.01;

$$




USA.gov is the U.S. government's official web portal to all federal, state and local government web resources and services.